Weather Service Report


613 
ASUS44 KLUB 281501
RWRTX 
WEST TEXAS WEATHER ROUNDUP
NATIONAL WEATHER SERVICE LUBBOCK TX
1000 AM CDT THU MAY 28 2015

NOTE: "FAIR" INDICATES FEW OR NO CLOUDS BELOW 12,000 FEET WITH NO
SIGNIFICANT WEATHER AND/OR OBSTRUCTIONS TO VISIBILITY.

TXZ004-006>008-010-012-014-016-OKZ002-281600-
TEXAS PANHANDLE/OKLAHOMA PANHANDLE
  
CITY           SKY/WX    TMP DP  RH WIND       PRES   REMARKS
AMARILLO       CLOUDY    64  56  75 E13       30.11S                  
BORGER         CLOUDY    68  52  56 E8        30.10S                  
CANADIAN       PTSUNNY   71  64  80 SE6       30.07F                  
DALHART        CLOUDY    65  58  78 SE17      30.10S                  
DUMAS          PTSUNNY   66  55  67 E14       30.10S                  
GUYMON         CLOUDY    66  58  75 S15       30.02F                  
$$

TXZ026-029-035-045-048-281600-
SOUTHERN PANHANDLE/SOUTH PLAINS/ROLLING PLAINS
  
CITY           SKY/WX    TMP DP  RH WIND       PRES   REMARKS
CHILDRESS      PTSUNNY   69  60  73 NE7       30.08R                  
LUBBOCK        CLOUDY    71  65  81 SE17      30.06F                  
$$

TXZ052-054-060>062-072-078-127-140-154-169-281600-
PERMIAN BASIN/CONCHO VALLEY/BIG COUNTRY/EDWARDS PLATEAU  
  
CITY           SKY/WX    TMP DP  RH WIND       PRES   REMARKS
ABILENE        PTSUNNY   77  68  73 S16       30.06F                  
BRADY          PTSUNNY   75  70  83 SE12      30.08S                  
JUNCTION       CLOUDY    78  68  71 S10       30.07R                  
MIDLAND        PTSUNNY   74  65  73 SE21      30.05R                  
ODESSA         TSTM      72  65  78 SE22      30.03F                  
SAN ANGELO     CLOUDY    76  67  73 S9        30.05S                  
SWEETWATER     MOSUNNY   74  69  81 S14       30.09F                  
WINK           PTSUNNY   77  67  71 SE17G24   29.99R                  
$$

TXZ055-058-074-075-080-082-281600-
FAR WEST/SOUTHWEST MOUNTAINS/TRANS PECOS
  
CITY           SKY/WX    TMP DP  RH WIND       PRES   REMARKS
DRYDEN           N/A     76  68  76 E8G16     29.98R                  
EL PASO        MOSUNNY   80  32  17 N5        30.04R                  
FORT STOCKTON  MOSUNNY   75  66  73 SE10      30.03R                  
GUADALUPE PASS SUNNY     66  57  72 SW15      30.12F                  
MARFA          MOSUNNY   72  61  68 S17G25    30.15S                  
$$

TXZ014-016-019-021>030-083-281600
TEXAS TECH WEST TEXAS MESONET/TEXAS PANHANDLE/NORTHERN SOUTH PLAINS
  
CITY           SKY/WX    TMP DP  RH WIND       PRES   REMARKS
ABERNATHY 5ENE   N/A     71  65  80 SE15      30.09F                  
AMARILLO 7SSE    N/A     70  65  82 S13       30.10R                  
AMHERST 1NE      N/A     64  62  93 E18       30.08F                  
BOOTLEG 11WNW    N/A     64  63  97 S17       30.10F                  
CANADIAN 6E      N/A     69  63  82 SE1       30.07S                  
CAPROCK CYN SP   N/A     74  63  68 SE16      30.08R                  
CHILDRESS 2NNE   N/A     68  59  72 N7        30.08R                  
CLARENDON 2WSW   N/A     64  56  77 NE8       30.10S                  
CLAUDE 12SW      N/A     68  63  82 SE6       30.11R                  
DIMMITT 2NE      N/A     65  62  89 SE20      30.04F                  
FLOYDADA 2NNE    N/A     72  63  74 SE14      30.07F                  
FRIONA 2NE       N/A     65  62  89 SE6       30.07F                  
GOODLETT 3W      N/A     70  59  69 NE9       30.07R                  
HART 3N          N/A     65  63  95 S25G36    30.09F                  
HEREFORD 2NW     N/A     67  62  83 S7        30.08F                  
MCLEAN 1E        N/A     69  56  63 E7        30.09S                  
MEMPHIS 1NE      N/A     67  59  75 NE6       30.08S                  
MULESHOE 2SSW    N/A     67  63  87 SE23      30.05R                  
OLTON 6S       RAIN      64  59  85 W15G28    30.17R                  
PALO DURO SP     N/A     71  64  78 S12       30.10R                  
PAMPA 2E         N/A     69  55  60 E12       30.11S                  
PLAINVIEW 1S     N/A     67  65  91 SW7       30.12R                  
SILVERTON 7ESE   N/A     74  63  69 SE16      30.08R                  
TULIA 2ENE       N/A     68  65  88 S22       30.09S                  
TURKEY 2WSW      N/A     72  62  70 SE9       30.07R                  
UMBARGER 3NNE    N/A     67  64  88 S17       30.10S                  
$$

TXZ033>036-039>041-045>048-281600
TEXAS TECH WEST TEXAS MESONET/SOUTH PLAINS  
  
CITY           SKY/WX    TMP DP  RH WIND       PRES   REMARKS
AIKEN 3WSW       N/A     69  65  86 S9        30.13R                  
ANDREWS 2NE      N/A     71  64  80 SE9       30.05F                  
ANTON 6SSW       N/A     68  64  89 SE3       30.11R                  
BROWNFIELD 2S    N/A     71  66  83 SE14      30.07S                  
GAIL 2ESE        N/A     76  68  78 SE12      30.05F                  
LAMESA 2SE       N/A     71  67  86 E10       30.07S                  
LEVELLAND 4S     N/A     68  65  88 E8        30.09S                  
LUBBOCK 3WNW     N/A     71  64  78 SE15      30.06F                  
MORTON 1ENE      N/A     66  65  96 SE8       30.10F                  
ODONNELL 1N      N/A     71  65  81 SE15      30.05F                  
PLAINS 3N        N/A     70  65  84 SE12      30.08R                  
RALLS 1SE        N/A     71  64  80 SE14      30.08F                  
REESE CENTER     N/A     70  65  84 S16       30.07R                  
SEAGRAVES 1SW    N/A     73  66  79 SE16      30.06R                  
SEMINOLE 2NNE    N/A     73  65  76 SE15      30.06S                  
SLATON 2NE       N/A     68  64  84 SE9       30.07S                  
SNYDER 3E        N/A     75  68  79 S15       30.05F                  
SUNDOWN 8SW      N/A     68  65  92 E7        30.09R                  
TAHOKA 3NNE      N/A     71  66  86 SE20      30.04F                  
WOLFFORTH 6SSW   N/A     71  69  94 SE12      30.07F                  
$$

TXZ031-032-036>038-042>044-281600-
TEXAS TECH WEST TEXAS MESONET/ROLLING PLAINS 
  
CITY           SKY/WX    TMP DP  RH WIND       PRES   REMARKS
ASPERMONT 3NE    N/A     75  64  68 E8        30.05S                  
FLUVANNA 3WNW    N/A     73  66  78 SE16      30.06F                  
GRAHAM 5SSW      N/A     71  66  85 S8        30.06F                  
GUTHRIE 10WSW    N/A     73  64  73 SE14      30.05R                  
HASKELL 1NW      N/A     71  63  75 SE8       30.06R                  
JAYTON 1SSE      N/A     73  65  74 SE12      30.05F                  
KNOX CITY 3NW    N/A     74  58  58 E13       30.06S                  
LK A HENRY 1NW   N/A     76  69  80 SE10      30.03F                  
NORTHFIELD 1S    N/A     72  60  66 SE7       30.07R                  
ODELL 4ENE       N/A     69  62  80 NE8       30.09S                  
PADUCAH 10SW     N/A     72  63  72 SE7       30.06R                  
POST 1NE         N/A     72  65  80 SE6       30.06S                  
RRING SPRGS 3N   N/A     69  62  77 SE12      30.07S                  
SEYMOUR 3NW      N/A     73  64  71 SE8       30.05R                  
SPUR 1W          N/A     71  64  77 SE9       30.05F                  
WEINERT 2NNE     N/A     71  63  76 SE9       30.06S                  
WHITE RVR 6NE    N/A     72  64  77 SE10      30.05F                  
$$

TXZ052-054-060>062-072-078-127-140-154-169-281600-
TEXAS TECH WEST TEXAS MESONET/PERMIAN BASIN/
CONCHO VALLEY/BIG COUNTRY/EDWARDS PLATEAU
  
CITY           SKY/WX    TMP DP  RH WIND       PRES   REMARKS
COYANOSA 2N      N/A     77  68  72 SE16      30.00F                  
JUNCTION 1SSW    N/A     78  69  73 S12       30.07S                  
MERTZON 3NNE     N/A     74  67  77 S12       30.08R                  
SAN ANGELO 7NW   N/A     77  66  68 SE6       30.06S                  
STRLNG CT 4WSW   N/A     74  67  77 SE12      30.07S                  
ST LAWRNCE 5SW   N/A     73  65  76 SE18      30.06R                  
SWEETWATR 11SW   N/A     73  68  82 S16       30.08F                  
WALL 1E          N/A     77  66  68 SE10      30.07R                  
$$

TXZ055-058-074-075-080-082-281600-
TEXAS TECH WEST TEXAS MESONET/FAR WEST/SOUTHWEST MOUNTAINS/TRANS PECOS
  
CITY           SKY/WX    TMP DP  RH WIND       PRES   REMARKS
PRSMN GAP BBNP   N/A     79  61  53 S10       30.01F                  
$$

Return to Home page


Western Regional Climate Center, wrcc@dri.edu